Regional Weather Roundup
Issued by NWS Austin/San Antonio, TX

Home | Current Version | Previous Version | Text Only | Print | Product List | Glossary On
Versions: 1 2 3 4 5 6 7 8 9 10 11 12 13 14 15 16 17 18 19 20 21 22 23 24 25 26 27 28 29 30 31 32 33 34 35 36 37 38 39 40 41 42 43 44 45 46 47 48 49 50
000
ASUS44 KEWX 171811
RWREWX
SOUTH TEXAS REGIONAL WEATHER ROUNDUP
NATIONAL WEATHER SERVICE AUSTIN/SAN ANTONIO TX
1200 PM CST SUN FEB 17 2019

NOTE: "FAIR" INDICATED FEW OR NO CLOUDS BELOW 12,000 FEET WITH NO
SIGNIFICANT WEATHER AND/OR OBSTRUCTIONS TO VISIBILITY.

* - THESE STATIONS ARE NOT NWS OR FAA STATIONS...AND ARE NOT SUBJECT
    TO NWS AND FAA QUALITY CONTROL.

TXZ171-172-183>190-171900-
TEXAS HILL COUNTRY AND EDWARDS PLATEAU

CITY           SKY/WX    TMP DP  RH WIND       PRES   REMARKS
JUNCTION       SUNNY     62  25  24 N13G21    29.95R
6HR MIN TEMP:  46; 6HR MAX TEMP:  62;

*LLANO         SUNNY     57  36  44 N12       30.00R
BURNET         SUNNY     55  37  50 N13       29.97R
6HR MIN TEMP:  51; 6HR MAX TEMP:  56;

*HORSESHOE BAY SUNNY     58  38  46 N12       29.95R
6HR MIN TEMP:  53; 6HR MAX TEMP:  59;

*KERRVILLE     SUNNY     64  22  20 N14G22    29.91R
6HR MIN TEMP:  51; 6HR MAX TEMP:  64;

*FREDERICKSBRG SUNNY     61  28  28 N14       29.93R
6HR MIN TEMP:  52; 6HR MAX TEMP:  62;

*ROCKSPRINGS   SUNNY     63  18  17 N12G18    29.98R
*BOERNE STAGE  SUNNY     64  25  22 N14G20    29.91R
*CASTROVILLE   SUNNY     71  25  18 NE12G20   29.89S
HONDO          SUNNY     74  29  19 N17G26    29.88R
6HR MIN TEMP:  59; 6HR MAX TEMP:  74;

*UVALDE        SUNNY     70  28  21 NE9       29.91R
6HR MIN TEMP:  56; 6HR MAX TEMP:  70;

DEL RIO        SUNNY     68  27  21 NW8       29.91F
6HR MIN TEMP:  49; 6HR MAX TEMP:  68;

LAUGHLIN AFB   SUNNY     70  23  17 N15G22    29.91S
CARRIZO SPRGS  SUNNY     73  30  20 N10       29.88S
*FAITH RANCH   SUNNY     75  30  19 N10G17    29.88F
$$

TXZ173-191>194-202-209-217>225-228-171900-
CENTRAL AND SOUTH CENTRAL TEXAS

CITY           SKY/WX    TMP DP  RH WIND       PRES   REMARKS
GEORGETOWN     PTSUNNY   52  41  66 N15       29.96S
6HR MIN TEMP:  49; 6HR MAX TEMP:  56;

AUSTIN/BERGSTM PTSUNNY   57  43  59 N21       29.92R
6HR MIN TEMP:  55; 6HR MAX TEMP:  60;

AUSTIN/MABRY   PTSUNNY   58  41  53 N8G17     29.94R
6HR MIN TEMP:  56; 6HR MAX TEMP:  59;

*AUSTIN/EXEC   CLOUDY    54  43  66 N20       29.94S
*LAGO VISTA    PTSUNNY   53  33  46 N9G20     29.93S
6HR MIN TEMP:  52; 6HR MAX TEMP:  58;

SAN MARCOS     MOSUNNY   64  42  44 NE18      29.91R
6HR MIN TEMP:  57; 6HR MAX TEMP:  66;

NEW BRAUNFELS  PTSUNNY   67  37  33 N16       29.88R
6HR MIN TEMP:  56; 6HR MAX TEMP:  68;

RANDOLPH AFB   SUNNY     67  38  34 N13       29.87S
6HR MIN TEMP:  58; 6HR MAX TEMP:  67;

PT SAN ANTONIO SUNNY     70  34  26 NE17      29.86S
SAN ANTONIO    PTSUNNY   69  34  27 N12       29.88R
6HR MIN TEMP:  59; 6HR MAX TEMP:  69;

STINSON FIELD  SUNNY     72  31  22 N12       29.85S
6HR MIN TEMP:  60; 6HR MAX TEMP:  72;

*LA GRANGE     CLOUDY    58  46  66 N14G21    29.88S
6HR MIN TEMP:  53; 6HR MAX TEMP:  58;

*GIDDINGS      MOSUNNY   57  47  67 N15G25    29.92R
6HR MIN TEMP:  51; 6HR MAX TEMP:  57;

*GONZALES      MOSUNNY   62  47  58 N16G24    29.87S
6HR MIN TEMP:  57; 6HR MAX TEMP:  62;

$$

TXZ163>164-176>182-195>201-210>213-226-227-235-171900-
SOUTHEAST TEXAS

CITY           SKY/WX    TMP DP  RH WIND       PRES   REMARKS
COLLEGE STN    CLOUDY    54  46  74 N18       29.92R
6HR MIN TEMP:  51; 6HR MAX TEMP:  56;

*BRYAN         CLOUDY    52  42  70 N17G26    29.94R
6HR MIN TEMP:  49; 6HR MAX TEMP:  53;

*CALDWELL      CLOUDY    54  44  68 N16G28    29.93R
6HR MIN TEMP:  49; 6HR MAX TEMP:  55;

*CROCKETT        N/A     48  45  87 N10G17    29.95R WCI  44
*BRENHAM       CLOUDY    56  47  71 N18G26    29.91R
6HR MIN TEMP:  51; 6HR MAX TEMP:  59;

HUNTSVILLE     CLOUDY    51  46  83 N15G24    29.90R
6HR MIN TEMP:  49; 6HR MAX TEMP:  52;

CONROE         CLOUDY    54  52  93 N12       29.88R
6HR MIN TEMP:  53; 6HR MAX TEMP:  59; 6HR PCP: TRACE;

HOUSTON BUSH   CLOUDY    57  54  89 N15       29.85R
6HR MIN TEMP:  57; 6HR MAX TEMP:  65; 6HR PCP:  0.06;

HOUSTON HOBBY  CLOUDY    61  57  87 N14       29.82R
6HR MIN TEMP:  61; 6HR MAX TEMP:  71; 6HR PCP:  0.03;

*HOUSTON SW AP CLOUDY    60  58  94 N9        29.83R
6HR MIN TEMP:  59; 6HR MAX TEMP:  69; 6HR PCP:  0.02;

PEARLAND       CLOUDY    62  61  96 N13       29.83R
6HR MIN TEMP:  62; 6HR MAX TEMP:  70; 6HR PCP:  0.01;

HOUSTON HOOKS  CLOUDY    55  51  86 N14       29.87R
6HR MIN TEMP:  55; 6HR MAX TEMP:  60; 6HR PCP:  0.02;

ELLINGTON FLD  CLOUDY    63  61  94 N13       29.84R
SUGAR LAND     CLOUDY    61  55  81 N16       29.83R
6HR MIN TEMP:  60; 6HR MAX TEMP:  62; 6HR PCP:  0.02;

*HOUSTON EXEC  CLOUDY    57  54  88 N18       29.88R
*CLEVELAND MUN CLOUDY    55  55  98 N7G17     29.87R FOG
6HR MIN TEMP:  55; 6HR MAX TEMP:  66; 6HR PCP:  0.02;

*WHARTON       CLOUDY    58  54  86 N13       29.85S FOG
6HR MIN TEMP:  56; 6HR MAX TEMP:  58; 6HR PCP:  0.01;

*COLUMBUS      CLOUDY    58  47  66 N14G20    29.88R
6HR MIN TEMP:  55; 6HR MAX TEMP:  58; 6HR PCP:  0.01;

*EAGLE LAKE    CLOUDY    56  51  82 N14G21    29.87
6HR MIN TEMP:  54; 6HR MAX TEMP:  57; 6HR PCP:  0.01;

$$

TXZ214>216-236>238-171900-
THE UPPER TEXAS COAST

CITY           SKY/WX    TMP DP  RH WIND       PRES   REMARKS
*ORANGE        CLOUDY    68  66  94 N9        29.81S
6HR MIN TEMP:  67; 6HR MAX TEMP:  73;

PORT ARTHUR    CLOUDY    68  62  81 N15       29.79R
6HR MIN TEMP:  68; 6HR MAX TEMP:  76; 6HR PCP: TRACE;

GALVESTON      LGT RAIN  65  62  90 N16       29.79S FOG
6HR MIN TEMP:  65; 6HR MAX TEMP:  70; 6HR PCP: TRACE;

ANGLETON       CLOUDY    64  61  90 N13       29.80R
6HR MIN TEMP:  62; 6HR MAX TEMP:  70; 6HR PCP:  0.01;

*BAY CITY      CLOUDY    62  60  92 N10       29.81S
PALACIOS       CLOUDY    63  59  87 N21       29.81R
6HR MIN TEMP:  60; 6HR MAX TEMP:  68; 6HR PCP:  0.04;

$$

TXZ229>234-239>247-171900-
TEXAS COASTAL BEND AND RIO GRANDE PLAINS

CITY           SKY/WX    TMP DP  RH WIND       PRES   REMARKS
VICTORIA       CLOUDY    64  53  67 N17G24    29.84R
6HR MIN TEMP:  57; 6HR MAX TEMP:  64; 6HR PCP:  0.04;

*BEEVILLE      MOSUNNY   73  44  35 NE13G21   29.82S
6HR MIN TEMP:  60; 6HR MAX TEMP:  73;

ROCKPORT       CLOUDY    64  59  83 N12       29.81R
6HR MIN TEMP:  59; 6HR MAX TEMP:  66; 6HR PCP:  0.01;

*PORT ARANSAS  CLOUDY    63  62  94 N12       29.82S
6HR MIN TEMP:  61; 6HR MAX TEMP:  66;

*PORT LAVACA   CLOUDY    64  58  80 N20       29.82S
6HR MIN TEMP:  60; 6HR MAX TEMP:  65;

*INGLESIDE     CLOUDY    65  60  84 NE10G18   29.80F
CORPUS CHRISTI PTSUNNY   69  61  75 NE12      29.80S
6HR MIN TEMP:  61; 6HR MAX TEMP:  69; 6HR PCP:  0.01;

CORPUS NAS     CLOUDY    67  63  87 NE13      29.80S
6HR MIN TEMP:  64; 6HR MAX TEMP:  68; 6HR PCP:  0.05;

*ROBSTOWN      NOT AVBL
ALICE          CLOUDY    73  53  49 N14       29.81R
6HR MIN TEMP:  59; 6HR MAX TEMP:  74;

KINGSVILLE NAS MOSUNNY   73  61  65 N15       29.80S
6HR MIN TEMP:  62; 6HR MAX TEMP:  73; 6HR PCP: TRACE;

COTULLA        PTSUNNY   70  38  31 NE12      29.88R
6HR MIN TEMP:  58; 6HR MAX TEMP:  71; 6HR PCP:  0.02;

LAREDO         SUNNY     75  43  31 N20G25    29.84F
6HR MIN TEMP:  61; 6HR MAX TEMP:  76; 6HR PCP: TRACE;

$$

TXZ248>255-171900-
DEEP SOUTH TEXAS

CITY           SKY/WX    TMP DP  RH WIND       PRES   REMARKS
BROWNSVILLE    CLOUDY    75  74  96 NW7       29.75S FOG
6HR MIN TEMP:  70; 6HR MAX TEMP:  75; 6HR PCP: TRACE;

PORT ISABEL    LGT RAIN  68  66  93 N20       29.75R FOG
6HR MIN TEMP:  68; 6HR MAX TEMP:  73; 6HR PCP:  0.01;

HARLINGEN      CLOUDY    68  66  93 N17       29.77R
6HR MIN TEMP:  67; 6HR MAX TEMP:  74; 6HR PCP: TRACE;

*HEBBRON


USA.gov is the U.S. government's official web portal to all federal, state and local government web resources and services.